Regional Weather Roundup
Issued by NWS Newport/Morehead, NC

Current Version | Previous Version | Graphics & Text | Print | Product List | Glossary Off
Versions: 1 2 3 4 5 6 7 8 9 10 11 12 13 14 15 16 17 18 19 20 21 22 23 24 25 26 27 28 29 30 31 32 33 34 35 36 37 38 39 40 41 42 43 44 45 46 47 48 49 50

000
ASUS42 KMHX 240225
RWRMHX
WEATHER ROUNDUP FOR EASTERN NORTH CAROLINA
NATIONAL WEATHER SERVICE NEWPORT/MOREHEAD CITY NC
900 PM EST THU FEB 23 2017

NOTE: "FAIR" INDICATES FEW OR NO CLOUDS BELOW 12,000 FEET
WITH NO SIGNIFICANT WEATHER AND/OR OBSTRUCTIONS TO VISIBILITY

NCZ015>017-031-032-045>047-102-103-240300-
NORTH COAST

CITY           SKY/WX    TMP DP  RH WIND       PRES   REMARKS
EDENTON        PTCLDY    56  53  88 E3        29.95S
ELIZABETH CITY MOCLDY    57  54  89 SE3       29.95S
KITTY HAWK     NOT AVBL
MANTEO         CLOUDY    54  53  95 CALM      29.95S

$$

NCZ045>047-081-094-103-104-240300-
CENTRAL COAST

CITY           SKY/WX    TMP DP  RH WIND       PRES   REMARKS
FRISCO         CLOUDY    68  59  73 SE8       29.94R HAZE

$$

NCZ095-097-098-100-101-240300-
SOUTHERN COAST

CITY           SKY/WX    TMP DP  RH WIND       PRES   REMARKS
BEAUFORT       CLOUDY    61  59  93 NE5       29.92S
CEDAR ISLAND   NOT AVBL
JACKSONVILLE   PTCLDY    62  60  93 NE5       29.92R
PINEY ISLAND   PTCLDY   N/A N/A N/A NE3       29.92S
WILMINGTON     MOCLDY    60  58  92 NE3       29.91R


$$

NCZ011>013-027>030-043-044-078>080-089-090>093-098-240300-
COASTAL PLAIN

CITY           SKY/WX    TMP DP  RH WIND       PRES   REMARKS
AHOSKIE          N/A     57  52  84 CALM      29.94R
CLINTON        CLEAR     58  55  90 CALM      29.93R
ELIZABETHTOWN  CLEAR     58  54  87 CALM      29.91S
GOLDSBORO      CLEAR     62  58  84 CALM      29.91R
GREENVILLE     CLEAR     61  57  88 CALM      29.95S
HAVELOCK       PTCLDY    60  56  86 N3        29.94R
KENANSVILLE    CLEAR     55  54  94 CALM      29.92R
KINSTON        CLEAR     63  57  82 SE5       29.93S
NEW BERN       MOCLDY    56  56 100 CALM      29.94R
RICHLANDS      MOCLDY    55  54  96 NE3       29.93R
ROCKY MOUNT    CLEAR     59  54  83 CALM      29.93R
WASHINGTON     PTCLDY    56  54  92 E3        29.94R
WHITEVILLE     CLEAR     60  56  85 CALM      29.90S

$$

AMZ130-135-150-152-154-156-158-170-250-252-270-ANZ085-086-088-633-658-670-240300-
MARINE OBSERVATIONS

STATION/POSITION TIME  TEMP    WIND        PRES    WAVE   SWELL
                       AIR SEA DIR/SP/G            HT/PER HT/PER
                 (UTC) (F)     (DEG/KT/KT) (MB)    (FT/S) (FT/S)
CHESAPEAKE LIGHT NOT AVBL
64 E VA BEACH    0050   58 54  170/  6/  8 1014.1    3/10   3/10
DUCK             0200   56 50  140/  5/  5 1013.7
2 E DUCK         0200      51                N/A     3/11   2/11
OREGON INLET     0200   57 56   70/  4/  5 1014.0
13E OREGON INLT  NOT AVBL
HATTERAS CG      0200   66 62  150/  3/  4 1013.3
DIAMOND BUOY     0050   70 74  130/ 12/ 16 1013.3    6/ 6   3/11
CAPE LOOKOUT     0200   66     120/  9/ 10 1012.6
BEAUFORT LAB     0200   62 57   20/  2/  3 1012.2
30 SE NEW RVR IN 0208   69     130/  6/ 10 1012.7
30 SE NEW RVR IN 0213      69                N/A     6/ 7   2/11
27 SE WRIGHTSVLE 0208   68 67   90/  6/ 10 1011.8
5 SE WRIGHTSVLE  0208   59 58   30/  6/ 10 1012.5
225 S CAPE HAT   0150   67 69  100/ 21/ 27 1010.8   10/ 9   7/ 9
41 SE CHARLESTON 0150   71 69   60/ 12/ 14 1009.8    9/ 9   8/ 9

$$




USA.gov is the U.S. government's official web portal to all federal, state and local government web resources and services.